Caslav, Czech Republic

7:58 AM CEST on June 25, 2017 (GMT +0200)
Caslav

Weather History for LKCV - April, 2014

Change the Weather History Date:

Tuesday, April 22, 2014

  Actual Average Record
Temperature  
Mean Temperature 54 °F -  
Max Temperature 67 °F - - ()
Min Temperature 40 °F - - ()
Degree Days  
Heating Degree Days 12    
Growing Degree Days 4 (Base 50)    
Moisture  
Dew Point 49 °F    
Average Humidity 85    
Maximum Humidity 100    
Minimum Humidity 46    
Precipitation  
Precipitation 0.00 in - - ()
Sea Level Pressure  
Sea Level Pressure 29.86 in    
Wind  
Wind Speed 3 mph ()    
Max Wind Speed 9 mph    
Max Gust Speed -    
Visibility 6.9 miles    
Events Rain    
T = Trace of Precipitation, MM = Missing Value Source: Averaged Metar Reports

Daily Weather History Graph

Daily Weather History Graph

Search for Another Location

Airport or City:

Trip Planner

Search our weather history database for the weather conditions in past years. The results will help you decide how hot, cold, wet, or windy it might be!

Date:

Astronomy

Apr. 22, 2014 Rise Set
Actual Time 5:52 AM CEST 8:02 PM CEST
Civil Twilight 5:17 AM CEST 8:37 PM CEST
Nautical Twilight 4:33 AM CEST 9:21 PM CEST
Astronomical Twilight 3:43 AM CEST 10:12 PM CEST
Moon 2:10 AM CEST (4/22) 12:03 PM CEST (4/22)
Length of Visible Light 15h 20m
Length of Day
14h 10m
Waning Gibbous, 49% of the Moon is Illuminated
Apr 22
Waning Gibbous
Apr 29
New
May 7
First Quarter
May 14
Full
May 21
Last Quarter

Hourly Weather History & Observations

Time (CEST) Temp. Windchill Dew Point Humidity Pressure Visibility Wind Dir Wind Speed Gust Speed Precip Events Conditions
12:00 AM 50 °F - 48 °F 91% 29.78 in 9 mi ENE 2.2 mph - -  
12:00 AM 50.0 °F - 48.2 °F 94% 29.77 in - East 1.2 mph - N/A   Clear
1:00 AM 46 °F - 45 °F 94% 29.79 in 9 mi East 2.2 mph - -  
1:00 AM 46.4 °F - 44.6 °F 93% 29.77 in - Variable 1.2 mph - N/A   Clear
2:00 AM 45 °F - 44 °F 97% 29.79 in 9 mi SW 4.5 mph - -  
2:00 AM 46.4 °F 45.2 °F 44.6 °F 93% 29.77 in - SW 3.5 mph - N/A   Clear
3:00 AM 44 °F - 43 °F 96% 29.80 in 6 mi West 2.2 mph - -  
3:00 AM 44.6 °F - 44.6 °F 100% 29.77 in - Calm Calm - N/A   Clear
4:00 AM 45 °F - 44 °F 97% 29.80 in 6 mi South 2.2 mph - -  
4:00 AM 44.6 °F - 44.6 °F 100% 29.77 in - South 2.3 mph - N/A   Clear
5:00 AM 41 °F - 41 °F 100% 29.82 in 6 mi WSW 2.2 mph - -  
5:00 AM 41.0 °F 39.0 °F 41.0 °F 100% 29.77 in - WSW 3.5 mph - N/A   Clear
5:33 AM 41.0 °F - 41.0 °F 100% 29.80 in 2.5 mi WSW 2.3 mph - N/A   Mist
6:00 AM 43 °F - 43 °F 98% 29.83 in 2 mi SW 2.2 mph - -   Mist
6:00 AM 42.8 °F - 42.8 °F 100% 29.80 in 2.5 mi Calm Calm - N/A   Mist
7:00 AM 43 °F - 43 °F 100% 29.84 in 2 mi South 2.2 mph - -   Mist
7:00 AM 42.8 °F 41.1 °F 42.8 °F 100% 29.80 in 2.5 mi South 3.5 mph - N/A   Mist
7:09 AM 42.8 °F - 42.8 °F 100% 29.80 in 3.7 mi Variable 1.2 mph - N/A   Unknown
8:00 AM 47 °F - 47 °F 99% 29.85 in 5 mi Calm Calm - -   Mist
8:00 AM 46.4 °F - 46.4 °F 100% 29.83 in 5.0 mi Calm Calm - N/A   Unknown
9:00 AM 50 °F - 49 °F 97% 29.86 in 6 mi East 2.2 mph - -   Mostly Cloudy
9:00 AM 50.0 °F - 50.0 °F 100% 29.83 in - ESE 2.3 mph - N/A   Clear
10:00 AM 57 °F - 53 °F 80% 29.86 in 6 mi SE 4.5 mph - -   Mostly Cloudy
10:00 AM 57.2 °F - 53.6 °F 88% 29.86 in - SE 5.8 mph - N/A   Clear
11:00 AM 59 °F - 51 °F 67% 29.88 in 9 mi SW 2.2 mph - -   Mostly Cloudy
11:00 AM 59.0 °F - 51.8 °F 77% 29.86 in - Variable 1.2 mph - N/A   Clear
12:00 PM 63 °F - 51 °F 57% 29.88 in 9 mi NW 2.2 mph - -   Partly Cloudy
12:00 PM 62.6 °F - 51.8 °F 68% 29.89 in - Variable 2.3 mph - N/A   Clear
1:00 PM 64 °F - 51 °F 54% 29.88 in 9 mi WNW 2.2 mph - -   Partly Cloudy
1:00 PM 64.4 °F - 51.8 °F 64% 29.89 in - WNW 3.5 mph - N/A   Clear
2:00 PM 67 °F - 51 °F 46% 29.88 in 9 mi NW 4.5 mph - -   Mostly Cloudy
2:00 PM 66.2 °F - 51.8 °F 60% 29.89 in 6.2 mi NW 3.5 mph - N/A   Mostly Cloudy
3:00 PM 64 °F - 53 °F 57% 29.89 in 9 mi SE 8.9 mph - -   Mostly Cloudy
3:00 PM 64.4 °F - 51.8 °F 64% 29.89 in 6.2 mi SE 9.2 mph - N/A   Mostly Cloudy
4:00 PM 63 °F - 53 °F 62% 29.89 in 12 mi SE 6.7 mph - -   Partly Cloudy
4:00 PM 62.6 °F - 53.6 °F 72% 29.89 in 6.2 mi SE 6.9 mph - N/A   Mostly Cloudy
5:00 PM 63 °F - 55 °F 67% 29.90 in 12 mi South 4.5 mph - -   Scattered Clouds
5:00 PM 64.4 °F - 53.6 °F 68% 29.89 in 6.2 mi South 4.6 mph - N/A   Mostly Cloudy
6:00 PM 62 °F - 56 °F 73% 29.91 in 12 mi SW 2.2 mph - -   Scattered Clouds
6:00 PM 62.6 °F - 55.4 °F 77% 29.92 in 6.2 mi WSW 2.3 mph - N/A   Mostly Cloudy
7:00 PM 60 °F - 56 °F 83% 29.92 in 12 mi ENE 4.5 mph - -   Partly Cloudy
7:00 PM 60.8 °F - 57.2 °F 88% 29.92 in 6.2 mi Variable 2.3 mph - N/A   Mostly Cloudy
8:00 PM 58 °F - 55 °F 86% 29.95 in 12 mi NNE 2.2 mph - -   Scattered Clouds
8:00 PM 59.0 °F - 55.4 °F 88% 29.95 in 6.2 mi Variable 2.3 mph - N/A   Mostly Cloudy
9:00 PM 53 °F - 51 °F 90% 29.98 in 6 mi NW 4.5 mph - -   Scattered Clouds
9:00 PM 53.6 °F - 51.8 °F 94% 29.98 in 6.2 mi NNW 3.5 mph - N/A   Mostly Cloudy
10:00 PM 56 °F - 55 °F 94% 29.99 in 6 mi NE 4.5 mph - -   Scattered Clouds
10:00 PM 55.4 °F - 55.4 °F 100% 29.98 in 6.2 mi NNE 3.5 mph - N/A   Mostly Cloudy
11:00 PM 52 °F - 50 °F 91% 30.00 in 6 mi South 4.5 mph - - Rain Light Rain Showers
11:00 PM 51.8 °F - 51.8 °F 100% 29.98 in - South 5.8 mph - N/A   Clear